Time,TemperatureF,DewpointF,PressureIn,WindDirection,WindDirectionDegrees,WindSpeedMPH,WindSpeedGustMPH,Humidity,HourlyPrecipIn,Conditions,Clouds,dailyrainin,SoftwareType,DateUTC
2013-09-06 00:11:00,52.0,41.0,29.90,WSW,242,3.0,6.0,65,0.00,,,0.09,,2013-09-06 07:11:00,
2013-09-06 00:23:00,51.0,40.0,29.90,South,184,4.0,6.0,66,0.00,,,0.09,,2013-09-06 07:23:00,
2013-09-06 00:42:00,51.0,39.0,29.90,SSW,192,4.0,6.0,64,0.00,,,0.09,,2013-09-06 07:42:00,
2013-09-06 00:52:00,51.0,39.0,29.90,SSW,209,5.0,7.0,64,0.00,,,0.09,,2013-09-06 07:52:00,
2013-09-06 01:12:00,51.0,40.0,29.90,SSW,202,5.0,7.0,65,0.00,,,0.09,,2013-09-06 08:12:00,
2013-09-06 01:22:00,51.0,40.0,29.90,SSW,194,5.0,6.0,65,0.00,,,0.09,,2013-09-06 08:22:00,
2013-09-06 01:42:00,52.0,40.0,29.90,SSW,200,4.0,8.0,64,0.00,,,0.09,,2013-09-06 08:42:00,
2013-09-06 01:52:00,52.0,41.0,29.90,SW,221,3.0,6.0,65,0.00,,,0.09,,2013-09-06 08:52:00,
2013-09-06 02:11:00,52.0,40.0,29.90,South,169,3.0,6.0,64,0.00,,,0.09,,2013-09-06 09:11:00,
2013-09-06 02:22:00,52.0,40.0,29.90,South,172,3.0,6.0,64,0.00,,,0.09,,2013-09-06 09:22:00,
2013-09-06 02:53:00,52.0,40.0,29.90,SW,218,3.0,6.0,63,0.00,,,0.09,,2013-09-06 09:53:00,
2013-09-06 03:12:00,53.0,40.0,29.90,WSW,246,3.0,6.0,62,0.00,,,0.09,,2013-09-06 10:12:00,
2013-09-06 03:23:00,53.0,40.0,29.90,SSW,205,3.0,6.0,62,0.00,,,0.09,,2013-09-06 10:23:00,
2013-09-06 03:42:00,53.0,40.0,29.90,South,180,3.0,6.0,61,0.00,,,0.09,,2013-09-06 10:42:00,
2013-09-06 03:53:00,54.0,41.0,29.90,SW,217,3.0,7.0,61,0.00,,,0.09,,2013-09-06 10:53:00,
2013-09-06 04:11:00,54.0,41.0,29.93,South,187,3.0,6.0,61,0.00,,,0.09,,2013-09-06 11:11:00,
2013-09-06 04:22:00,54.0,40.0,29.93,SSW,208,3.0,6.0,60,0.00,,,0.09,,2013-09-06 11:22:00,
2013-09-06 04:42:00,55.0,41.0,29.90,SW,222,5.0,7.0,60,0.00,,,0.09,,2013-09-06 11:42:00,
2013-09-06 04:52:00,55.0,41.0,29.90,SW,214,4.0,6.0,60,0.00,,,0.09,,2013-09-06 11:52:00,
2013-09-06 05:12:00,55.0,41.0,29.93,SSW,192,3.0,7.0,60,0.00,,,0.09,,2013-09-06 12:12:00,
2013-09-06 05:21:00,54.0,43.0,29.93,SW,228,3.0,13.0,67,0.00,,,0.09,,2013-09-06 12:21:00,
2013-09-06 05:42:00,53.0,45.0,29.93,WSW,244,4.0,8.0,73,0.00,,,0.09,,2013-09-06 12:42:00,
2013-09-06 05:52:00,52.0,44.0,29.93,SSW,210,5.0,8.0,73,0.00,,,0.09,,2013-09-06 12:52:00,
2013-09-06 06:11:00,52.0,45.0,29.93,SSW,208,4.0,7.0,76,0.00,,,0.09,,2013-09-06 13:11:00,
2013-09-06 06:22:00,51.0,43.0,29.93,SSW,207,5.0,7.0,74,0.01,,,0.10,,2013-09-06 13:22:00,
2013-09-06 06:42:00,51.0,45.0,29.93,SSE,154,3.0,6.0,79,0.01,,,0.10,,2013-09-06 13:42:00,
2013-09-06 06:52:00,52.0,46.0,29.93,SSW,198,3.0,6.0,79,0.01,,,0.10,,2013-09-06 13:52:00,
2013-09-06 07:11:00,52.0,47.0,29.93,West,263,3.0,8.0,83,0.02,,,0.11,,2013-09-06 14:11:00,
2013-09-06 07:22:00,52.0,47.0,29.95,SW,234,2.0,6.0,84,0.01,,,0.11,,2013-09-06 14:22:00,
2013-09-06 07:52:00,51.0,47.0,29.96,SSW,202,4.0,6.0,85,0.03,,,0.13,,2013-09-06 14:52:00,
2013-09-06 08:11:00,51.0,45.0,29.96,South,181,3.0,6.0,80,0.03,,,0.14,,2013-09-06 15:11:00,
2013-09-06 08:22:00,51.0,45.0,29.96,SW,215,3.0,7.0,80,0.04,,,0.15,,2013-09-06 15:22:00,
2013-09-06 08:53:00,52.0,46.0,29.96,SSW,212,3.0,6.0,80,0.03,,,0.16,,2013-09-06 15:53:00,
2013-09-06 09:13:00,54.0,48.0,29.96,SW,232,3.0,7.0,80,0.02,,,0.16,,2013-09-06 16:13:00,
2013-09-06 09:24:00,56.0,50.0,29.96,SSW,210,5.0,8.0,79,0.01,,,0.16,,2013-09-06 16:24:00,
2013-09-06 09:42:00,57.0,49.0,29.96,SSW,195,5.0,8.0,74,0.00,,,0.16,,2013-09-06 16:42:00,
2013-09-06 09:53:00,57.0,48.0,29.96,SSW,202,5.0,7.0,71,0.00,,,0.16,,2013-09-06 16:53:00,
2013-09-06 10:13:00,58.0,49.0,29.96,South,188,4.0,7.0,71,0.01,,,0.17,,2013-09-06 17:13:00,
2013-09-06 10:24:00,58.0,48.0,29.96,WSW,247,3.0,6.0,69,0.01,,,0.17,,2013-09-06 17:24:00,
2013-09-06 10:43:00,59.0,46.0,29.96,SSW,211,3.0,6.0,62,0.01,,,0.17,,2013-09-06 17:43:00,
2013-09-06 10:53:00,60.0,46.0,29.96,WSW,237,5.0,9.0,59,0.01,,,0.17,,2013-09-06 17:53:00,
2013-09-06 11:12:00,61.0,45.0,29.96,SW,234,5.0,7.0,55,0.00,,,0.17,,2013-09-06 18:12:00,
2013-09-06 11:22:00,61.0,44.0,29.96,SSW,208,6.0,10.0,53,0.00,,,0.17,,2013-09-06 18:22:00,
2013-09-06 11:42:00,61.0,43.0,29.96,West,269,7.0,14.0,52,0.00,,,0.17,,2013-09-06 18:42:00,
2013-09-06 11:52:00,61.0,43.0,29.98,SW,229,6.0,10.0,51,0.00,,,0.17,,2013-09-06 18:52:00,
2013-09-06 12:11:00,62.0,44.0,29.99,South,173,6.0,12.0,51,0.00,,,0.17,,2013-09-06 19:11:00,
2013-09-06 12:21:00,64.0,45.0,29.99,SSW,202,6.0,7.0,51,0.00,,,0.17,,2013-09-06 19:21:00,
2013-09-06 12:42:00,63.0,42.0,29.99,WNW,283,10.0,12.0,46,0.00,,,0.17,,2013-09-06 19:42:00,
2013-09-06 12:52:00,62.0,43.0,29.99,WSW,254,4.0,8.0,49,0.00,,,0.17,,2013-09-06 19:52:00,
2013-09-06 13:11:00,62.0,43.0,29.96,WSW,239,3.0,7.0,50,0.00,,,0.17,,2013-09-06 20:11:00,
2013-09-06 13:23:00,62.0,43.0,29.96,WSW,257,3.0,9.0,50,0.00,,,0.17,,2013-09-06 20:23:00,
2013-09-06 13:42:00,63.0,44.0,29.96,South,188,5.0,10.0,49,0.00,,,0.17,,2013-09-06 20:42:00,
2013-09-06 13:52:00,63.0,42.0,29.96,West,277,4.0,8.0,47,0.00,,,0.17,,2013-09-06 20:52:00,
2013-09-06 14:22:00,65.0,43.0,29.96,West,269,6.0,10.0,44,0.00,,,0.17,,2013-09-06 21:22:00,
2013-09-06 14:54:00,63.0,41.0,29.96,West,270,6.0,9.0,44,0.00,,,0.17,,2013-09-06 21:54:00,
2013-09-06 15:13:00,67.0,43.0,29.96,West,277,7.0,10.0,41,0.00,,,0.17,,2013-09-06 22:13:00,
2013-09-06 15:23:00,67.0,42.0,29.96,WNW,289,7.0,10.0,40,0.00,,,0.17,,2013-09-06 22:23:00,
2013-09-06 15:33:00,67.0,42.0,29.96,WNW,289,7.0,10.0,40,0.00,,,0.17,,2013-09-06 22:33:00,
2013-09-06 15:53:00,64.0,41.0,29.96,WNW,283,7.0,9.0,43,0.00,,,0.17,,2013-09-06 22:53:00,
2013-09-06 16:12:00,63.0,41.0,29.96,WNW,292,7.0,10.0,45,0.00,,,0.17,,2013-09-06 23:12:00,
2013-09-06 16:23:00,63.0,42.0,29.96,WNW,299,7.0,9.0,46,0.00,,,0.17,,2013-09-06 23:23:00,
2013-09-06 16:52:00,64.0,43.0,29.96,WNW,292,7.0,12.0,46,0.00,,,0.17,,2013-09-06 23:52:00,
2013-09-06 17:12:00,64.0,42.0,29.96,WNW,292,10.0,13.0,45,0.00,,,0.16,,2013-09-07 00:12:00,
2013-09-06 17:22:00,64.0,43.0,29.96,NW,308,9.0,13.0,46,0.00,,,0.16,,2013-09-07 00:22:00,
2013-09-06 17:42:00,61.0,43.0,29.96,WNW,297,7.0,10.0,52,0.00,,,0.16,,2013-09-07 00:42:00,
2013-09-06 17:52:00,61.0,43.0,29.96,West,274,7.0,10.0,52,0.00,,,0.14,,2013-09-07 00:52:00,
2013-09-06 18:12:00,63.0,44.0,29.99,NW,310,7.0,9.0,49,0.00,,,0.09,,2013-09-07 01:12:00,
2013-09-06 18:21:00,62.0,43.0,29.98,WNW,292,7.0,9.0,50,0.00,,,0.09,,2013-09-07 01:21:00,
2013-09-06 18:42:00,61.0,44.0,29.99,WNW,292,6.0,8.0,53,0.00,,,0.09,,2013-09-07 01:42:00,
2013-09-06 18:53:00,61.0,44.0,29.99,WNW,296,6.0,9.0,54,0.00,,,0.09,,2013-09-07 01:53:00,
2013-09-06 19:12:00,60.0,45.0,29.99,WNW,303,6.0,9.0,57,0.00,,,0.09,,2013-09-07 02:12:00,
2013-09-06 19:23:00,60.0,45.0,29.99,WNW,292,6.0,8.0,57,0.00,,,0.09,,2013-09-07 02:23:00,
2013-09-06 19:42:00,58.0,45.0,29.99,WNW,292,3.0,6.0,61,0.00,,,0.09,,2013-09-07 02:42:00,
2013-09-06 19:52:00,58.0,45.0,29.99,WSW,254,2.0,2.0,62,0.00,,,0.09,,2013-09-07 02:52:00,
2013-09-06 20:11:00,57.0,45.0,29.99,WNW,290,2.0,2.0,65,0.00,,,0.09,,2013-09-07 03:11:00,
2013-09-06 20:23:00,56.0,45.0,29.99,WNW,292,3.0,3.0,67,0.00,,,0.09,,2013-09-07 03:23:00,
2013-09-06 20:54:00,55.0,46.0,29.99,West,260,3.0,3.0,71,0.00,,,0.09,,2013-09-07 03:54:00,
2013-09-06 21:14:00,54.0,46.0,29.99,NNW,328,2.0,2.0,73,0.00,,,0.09,,2013-09-07 04:14:00,
2013-09-06 21:23:00,54.0,46.0,29.99,WNW,292,2.0,3.0,74,0.00,,,0.09,,2013-09-07 04:23:00,
2013-09-06 21:43:00,53.0,43.0,29.99,ENE,78,1.0,2.0,70,0.00,,,0.09,,2013-09-07 04:43:00,
2013-09-06 21:54:00,53.0,43.0,29.99,SE,146,2.0,3.0,69,0.00,,,0.09,,2013-09-07 04:54:00,
2013-09-06 22:12:00,51.0,42.0,29.99,ESE,118,2.0,3.0,70,0.00,,,0.09,,2013-09-07 05:12:00,
2013-09-06 22:23:00,51.0,42.0,29.99,ESE,112,0.0,2.0,70,0.00,,,0.09,,2013-09-07 05:23:00,
2013-09-06 22:52:00,51.0,43.0,29.99,ESE,108,2.0,3.0,73,0.00,,,0.09,,2013-09-07 05:52:00,
2013-09-06 23:13:00,51.0,42.0,29.99,East,97,2.0,2.0,72,0.00,,,0.09,,2013-09-07 06:13:00,
2013-09-06 23:21:00,51.0,42.0,29.99,SE,127,2.0,3.0,72,0.00,,,0.09,,2013-09-07 06:21:00,
2013-09-06 23:42:00,50.0,41.0,29.99,ESE,117,2.0,3.0,72,0.00,,,0.09,,2013-09-07 06:42:00,
2013-09-06 23:52:00,50.0,42.0,29.99,SE,126,2.0,3.0,73,0.00,,,0.09,,2013-09-07 06:52:00,